Temp
3 3 3 3 3 3 3 3 3 3 3 3 3 3 3 2 2 2 2 2 2 2 3 3 3 3 3 4 6 8 8 8 7 8 8 9 9 10 11 10 10 11 11 13 14 14 14
3 3 3 3 2 2 3 3 3 3 3 2 3 2 2 2 2 1 2 2 2 2 3 3 3 2 3 5 6 8 9 8 8 8 9 9 9 10 11 11 11 12 12 13 13 13 13
2 3 3 2 2 2 3 3 3 3 2 2 2 2 2 2 2 2 2 3 2 2 2 2 2 2 3 4 7 9 9 9 8 8 9 9 10 11 11 10 12 11 11 11 12 12 13
3 3 2 2 2 2 3 3 3 2 2 2 2 2 2 1 1 2 2 2 2 2 2 2 2 2 3 6 6 7 8 9 8 8 9 10 10 11 11 11 10 11 11 10 12 11 13
3 2 2 2 2 2 2 2 2 2 2 2 1 2 2 1 1 2 2 2 2 2 2 2 2 2 5 6 7 8 7 8 8 8 9 10 10 11 10 9 9 9 9 9 11 11 12
3 2 2 2 2 2 2 1 1 1 2 2 2 2 1 1 2 2 2 2 2 3 2 2 2 3 6 6 7 8 8 8 8 9 9 9 10 8 8 9 9 9 9 9 11 11 10
2 2 2 1 1 1 1 2 1 2 2 2 2 1 1 1 1 2 2 2 2 2 2 3 3 4 5 6 7 8 8 9 8 8 8 9 8 9 9 10 9 10 9 10 10 10 11
2 1 2 1 1 2 1 1 2 2 2 2 2 2 2 1 2 2 2 2 2 2 2 3 3 4 4 6 7 7 8 8 8 8 9 8 8 10 9 9 10 10 9 9 10 9 10
1 2 1 1 1 1 1 2 2 2 2 3 3 3 3 2 2 1 1 2 2 2 2 3 3 4 5 6 7 7 7 7 5 6 9 9 10 10 10 9 9 9 9 9 10 9 8
1 1 1 0 1 1 1 1 2 2 3 3 3 2 3 3 2 1 0 1 2 2 -0 3 4 5 6 6 6 7 7 8 7 4 7 8 8 10 10 10 10 9 9 9 9 9 9
2 2 0 0 1 1 1 2 2 3 4 4 3 2 2 2 1 1 1 2 2 2 1 4 4 5 6 6 6 8 8 9 8 8 8 6 9 9 10 9 10 9 8 8 7 7 7
4 1 1 1 0 -0 1 1 2 4 4 3 3 3 3 2 2 1 1 2 2 -0 4 4 5 6 7 6 7 7 8 9 8 7 7 7 6 8 7 6 8 7 7 6 5 6 7
4 3 3 3 1 0 1 1 4 5 5 4 3 3 3 3 2 2 1 2 -0 3 3 4 5 7 7 7 7 7 8 8 8 7 7 6 5 6 6 6 6 7 8 7 7 6 8
3 3 4 3 2 3 1 1 4 7 6 5 5 4 4 3 2 1 1 -0 5 5 6 5 7 7 7 6 7 7 7 7 7 7 7 7 7 7 8 8 7 7 8 7 9 8 7
5 4 5 4 4 4 4 1 4 6 7 7 6 6 4 4 3 2 2 4 4 5 7 7 7 6 6 6 7 7 6 7 7 7 7 6 6 8 7 7 8 7 7 6 4 3 5
5 5 3 5 5 5 4 4 4 5 7 7 7 6 5 5 4 3 1 5 5 5 7 6 5 6 6 6 6 7 7 7 7 7 7 6 6 7 7 8 7 7 6 6 3 5 7
5 5 4 4 5 5 5 5 4 5 7 8 7 7 7 7 7 6 3 3 5 6 6 7 5 5 6 6 5 5 6 7 8 7 7 6 6 6 8 7 6 6 6 4 4 4 6
5 5 5 5 4 5 5 5 5 5 7 8 7 2 7 8 4 3 4 3 4 5 7 7 6 6 5 5 6 6 7 7 8 8 7 6 5 6 6 6 6 6 6 5 5 4 2
5 4 4 5 4 4 5 5 5 5 5 6 6 7 7 8 2 2 3 5 4 5 6 7 7 7 6 6 6 6 6 7 8 8 7 7 4 2 4 6 5 6 5 5 4 3 2
4 4 3 3 4 3 4 5 5 5 5 5 5 1 6 6 4 5 4 5 6 6 7 7 7 7 7 6 5 6 6 6 7 8 8 8 4 4 4 6 5 4 5 4 4 3 4
4 4 3 2 3 3 3 4 5 5 5 4 4 1 1 1 2 2 2 4 6 6 6 7 7 7 7 6 6 6 6 6 7 8 7 6 4 3 5 5 4 5 5 4 3 4 4
3 3 3 2 1 2 3 3 4 5 4 4 2 1 2 1 2 2 4 5 6 6 6 7 7 8 8 6 6 5 6 6 7 6 6 5 4 3 2 5 4 4 4 4 5 5 5
3 3 3 2 1 1 1 1 2 4 4 2 1 1 1 2 1 3 4 5 6 6 6 6 7 9 8 7 7 7 8 8 7 6 5 6 2 2 3 4 4 5 4 5 5 4 6
2 2 2 2 -0 -0 0 -0 -1 0 2 0 -0 0 1 2 1 2 3 4 6 6 7 6 7 8 7 7 7 7 7 6 7 5 6 5 4 3 4 4 4 7 6 6 6 6 6
1 -0 -1 -0 -1 -0 -1 -1 -1 -1 -1 -0 -0 0 1 2 2 2 2 3 5 6 6 6 7 7 7 7 6 7 7 8 7 6 6 7 5 5 5 6 6 8 6 6 7 10 7
0 -1 -1 -1 -0 -0 -1 -1 -1 -2 -2 -1 -0 -0 1 1 0 1 2 2 3 3 4 6 6 7 7 5 6 6 5 5 6 5 5 6 4 5 5 5 6 8 8 9 8 9 8
0 -0 -0 -1 -1 -1 -1 -1 -1 -1 -1 -2 -1 -1 -1 -1 1 1 1 2 3 3 2 4 6 6 6 3 5 5 4 5 6 7 6 6 6 6 6 6 5 7 8 9 7 9 9
1 0 -0 -0 -1 -1 -1 -1 -1 -1 -1 -2 -1 -2 -2 -2 0 1 1 2 3 4 2 4 4 4 3 4 5 5 3 3 4 5 6 7 5 6 6 6 5 8 7 8 9 9 9
-0 -1 -1 -1 -1 -1 -1 -1 -1 -1 -1 -1 -2 -2 -2 -2 -0 0 -0 0 1 2 1 3 3 4 5 3 2 2 3 2 3 4 4 6 5 5 5 6 7 8 9 9 9 8 9
Height
1526 1522 1517 1513 1508 1503 1499 1493 1488 1483 1479 1475 1472 1468 1465 1463 1461 1458 1456 1454 1454 1454 1455 1456 1458 1458 1459 1461 1457 1459 1458 1460 1468 1473 1477 1482 1486 1491 1496 1499 1502 1503 1503 1504 1506 1508 1510
1523 1519 1515 1510 1504 1499 1494 1490 1485 1479 1474 1471 1468 1464 1461 1459 1457 1455 1453 1451 1451 1451 1451 1452 1453 1454 1457 1457 1456 1457 1458 1462 1464 1470 1475 1480 1484 1489 1496 1497 1499 1500 1502 1503 1504 1506 1508
1521 1517 1513 1508 1502 1496 1492 1487 1481 1476 1471 1467 1463 1460 1458 1455 1453 1451 1449 1448 1448 1447 1448 1449 1450 1452 1452 1449 1451 1454 1457 1460 1462 1466 1471 1478 1482 1488 1490 1495 1497 1499 1504 1505 1503 1505 1506
1520 1516 1512 1506 1500 1494 1489 1484 1478 1472 1468 1464 1460 1456 1453 1451 1449 1447 1447 1446 1445 1444 1444 1446 1447 1449 1448 1449 1451 1454 1455 1457 1461 1467 1472 1478 1483 1487 1488 1492 1496 1500 1503 1509 1502 1503 1504
1519 1514 1508 1503 1498 1492 1487 1482 1476 1470 1465 1461 1456 1451 1449 1447 1445 1444 1444 1442 1441 1440 1442 1444 1445 1446 1445 1445 1449 1451 1454 1454 1460 1466 1472 1478 1481 1484 1487 1491 1498 1501 1506 1507 1502 1500 1501
1518 1513 1508 1502 1496 1490 1485 1480 1474 1467 1461 1455 1450 1447 1444 1442 1441 1441 1441 1440 1436 1437 1440 1442 1444 1447 1441 1443 1446 1450 1453 1454 1459 1465 1474 1480 1481 1483 1487 1489 1493 1498 1503 1504 1502 1500 1501
1516 1512 1506 1501 1495 1489 1483 1478 1471 1464 1458 1451 1445 1440 1439 1437 1437 1438 1439 1438 1440 1441 1439 1440 1441 1439 1438 1442 1445 1450 1451 1453 1458 1464 1468 1475 1477 1475 1482 1486 1488 1492 1498 1500 1500 1499 1500
1515 1511 1506 1499 1494 1488 1481 1475 1470 1464 1456 1449 1441 1435 1433 1432 1433 1435 1436 1437 1438 1440 1440 1439 1439 1438 1439 1441 1444 1449 1451 1454 1457 1461 1466 1476 1476 1477 1483 1487 1488 1492 1497 1501 1500 1499 1500
1513 1509 1505 1498 1492 1486 1479 1474 1470 1463 1456 1448 1441 1434 1430 1429 1429 1429 1434 1437 1438 1438 1438 1441 1440 1439 1438 1443 1446 1449 1453 1447 1459 1465 1466 1470 1473 1475 1481 1486 1490 1494 1495 1500 1500 1501 1503
1512 1508 1503 1496 1490 1484 1479 1474 1469 1463 1456 1450 1444 1437 1432 1428 1431 1432 1434 1436 1438 1439 1444 1445 1442 1439 1442 1443 1448 1451 1451 1454 1456 1471 1467 1474 1474 1473 1479 1485 1487 1496 1494 1497 1500 1503 1506
1510 1507 1502 1496 1490 1484 1478 1473 1468 1463 1458 1453 1447 1442 1437 1434 1436 1436 1439 1438 1439 1441 1457 1445 1443 1441 1443 1447 1451 1452 1453 1455 1456 1463 1469 1478 1473 1475 1479 1484 1487 1493 1496 1501 1505 1510 1512
1509 1506 1500 1495 1488 1483 1478 1473 1468 1463 1459 1456 1452 1448 1444 1441 1440 1441 1440 1441 1442 1451 1447 1448 1446 1445 1447 1451 1452 1454 1454 1457 1462 1468 1472 1478 1478 1479 1483 1488 1489 1495 1501 1507 1513 1515 1514
1508 1505 1500 1495 1488 1483 1477 1474 1469 1463 1460 1458 1456 1452 1448 1446 1445 1443 1443 1443 1451 1449 1454 1453 1449 1448 1447 1453 1456 1458 1457 1462 1465 1471 1475 1480 1484 1485 1486 1493 1496 1500 1498 1510 1515 1521 1506
1509 1504 1500 1495 1489 1484 1479 1473 1469 1466 1461 1458 1457 1454 1451 1448 1446 1444 1443 1445 1438 1445 1444 1450 1449 1449 1452 1456 1458 1460 1462 1466 1468 1469 1478 1482 1488 1487 1487 1488 1492 1499 1498 1503 1500 1508 1508
1508 1505 1499 1495 1489 1485 1480 1474 1469 1466 1461 1457 1454 1453 1450 1447 1444 1444 1444 1443 1456 1450 1448 1449 1451 1457 1460 1459 1460 1464 1470 1468 1469 1469 1474 1485 1491 1488 1487 1487 1490 1498 1502 1506 1519 1531 1523
1507 1504 1500 1495 1490 1485 1480 1475 1469 1465 1461 1456 1453 1452 1449 1447 1444 1444 1447 1447 1454 1453 1451 1452 1459 1459 1462 1463 1464 1465 1468 1467 1469 1469 1470 1480 1491 1490 1490 1487 1492 1493 1502 1508 1521 1522 1505
1506 1503 1499 1493 1489 1485 1480 1475 1469 1464 1460 1456 1452 1452 1452 1448 1446 1445 1456 1459 1458 1455 1453 1453 1459 1462 1463 1465 1469 1471 1471 1469 1467 1469 1469 1477 1484 1494 1489 1491 1494 1499 1502 1509 1513 1519 1506
1506 1503 1499 1494 1488 1484 1480 1476 1470 1464 1460 1457 1454 1457 1454 1451 1452 1457 1459 1460 1459 1456 1454 1453 1456 1459 1465 1467 1468 1469 1468 1468 1467 1468 1474 1476 1487 1492 1493 1494 1493 1495 1498 1501 1507 1516 1524
1506 1503 1499 1495 1489 1484 1479 1475 1472 1466 1461 1458 1457 1456 1456 1452 1465 1466 1462 1460 1459 1457 1456 1454 1456 1456 1459 1463 1467 1467 1468 1468 1468 1468 1472 1474 1490 1507 1501 1498 1497 1496 1497 1499 1504 1510 1520
1505 1502 1498 1494 1491 1485 1480 1475 1472 1467 1463 1461 1460 1462 1458 1458 1461 1463 1465 1462 1459 1457 1456 1456 1457 1457 1459 1464 1466 1469 1470 1470 1469 1469 1470 1471 1486 1491 1497 1490 1493 1499 1495 1497 1499 1509 1506
1503 1501 1498 1494 1490 1486 1481 1475 1472 1468 1463 1462 1461 1465 1465 1469 1465 1465 1466 1464 1460 1460 1457 1457 1458 1458 1460 1465 1466 1469 1469 1470 1471 1470 1472 1474 1490 1493 1487 1487 1490 1490 1490 1494 1498 1495 1497
1503 1500 1498 1494 1490 1486 1482 1476 1472 1469 1464 1463 1464 1466 1466 1465 1466 1465 1464 1464 1461 1460 1460 1458 1459 1458 1458 1463 1464 1468 1467 1469 1469 1473 1474 1476 1491 1493 1495 1487 1489 1490 1487 1487 1488 1488 1488
1502 1500 1497 1493 1490 1486 1482 1477 1473 1470 1467 1465 1466 1466 1467 1466 1465 1466 1464 1462 1460 1459 1460 1458 1457 1456 1458 1460 1460 1461 1462 1464 1465 1470 1476 1477 1489 1494 1496 1487 1487 1484 1477 1477 1478 1479 1477
1499 1497 1495 1492 1490 1487 1483 1478 1474 1471 1469 1469 1469 1468 1467 1466 1465 1465 1464 1463 1459 1458 1458 1458 1457 1458 1462 1461 1462 1463 1464 1465 1467 1469 1470 1478 1483 1490 1489 1489 1492 1464 1462 1464 1466 1468 1471
1496 1494 1493 1490 1488 1486 1483 1479 1476 1474 1471 1470 1469 1469 1468 1467 1465 1462 1462 1462 1460 1459 1458 1458 1458 1459 1460 1462 1465 1466 1467 1467 1470 1470 1471 1472 1479 1485 1485 1479 1472 1458 1462 1463 1463 1458 1461
1494 1493 1491 1488 1487 1485 1483 1480 1477 1474 1472 1471 1470 1469 1469 1469 1464 1464 1463 1462 1461 1460 1460 1459 1459 1459 1460 1462 1465 1469 1475 1473 1472 1474 1472 1473 1475 1482 1484 1483 1477 1458 1455 1455 1458 1461 1457
1492 1491 1490 1488 1486 1484 1482 1480 1477 1475 1473 1471 1470 1469 1468 1467 1462 1462 1462 1461 1460 1459 1460 1458 1458 1459 1459 1465 1468 1470 1475 1469 1467 1466 1472 1474 1475 1476 1477 1477 1469 1455 1455 1457 1464 1462 1454
1491 1489 1487 1486 1485 1483 1481 1479 1476 1475 1472 1471 1470 1468 1468 1466 1460 1458 1459 1458 1458 1457 1458 1457 1459 1457 1459 1462 1461 1461 1470 1467 1466 1465 1464 1466 1472 1469 1472 1475 1476 1451 1455 1458 1454 1452 1452
1489 1487 1486 1484 1483 1481 1479 1477 1475 1474 1472 1470 1468 1467 1466 1465 1457 1454 1451 1453 1453 1455 1456 1454 1452 1450 1450 1456 1460 1461 1462 1466 1465 1466 1463 1464 1463 1466 1464 1460 1450 1450 1449 1450 1449 1449 1449
Wind_Speed
21 24 24 26 25 27 27 29 30 31 28 26 23 24 21 18 16 16 14 14 14 14 13 13 13 12 9 13 14 6 6 6 28 29 29 24 27 18 9 7 8 2 4 9 8 6 4
23 22 25 26 29 26 28 31 31 30 27 25 23 22 19 17 16 15 15 13 12 12 10 10 8 8 10 10 9 24 7 4 30 32 32 25 21 18 13 9 6 11 5 4 8 6 3
23 24 24 28 30 27 30 31 31 30 27 25 23 21 20 15 17 17 14 13 12 10 11 9 8 8 13 18 6 19 25 15 27 34 35 23 17 19 13 5 9 10 4 2 7 4 3
23 25 26 28 30 28 29 31 31 29 27 25 23 23 19 17 17 14 12 11 13 13 9 8 6 8 8 16 16 10 17 12 26 32 34 26 26 14 6 12 5 5 3 4 2 9 8
23 24 26 29 28 30 29 30 32 31 28 28 25 24 19 21 13 11 12 15 18 10 7 6 5 7 5 8 21 8 5 14 27 30 31 26 20 6 7 6 4 2 4 5 3 9 3
23 25 26 29 28 30 28 29 28 28 30 31 26 23 21 20 9 11 12 16 8 4 4 5 4 4 7 7 18 17 10 14 24 26 23 20 10 4 3 4 8 6 4 3 8 2 3
23 26 27 29 28 27 29 30 28 32 35 35 31 20 18 15 9 10 12 7 1 4 11 4 6 4 9 9 17 16 9 18 22 24 6 14 4 14 10 4 4 7 5 4 2 2 1
23 25 28 29 26 29 28 27 32 34 36 34 30 25 18 13 12 12 8 4 2 3 1 8 8 13 6 9 11 12 10 9 10 12 7 6 8 8 9 5 6 5 5 3 1 3 0
23 24 27 28 25 27 28 31 31 33 33 35 31 25 15 9 9 11 6 3 5 3 2 5 1 4 1 11 8 8 10 7 6 5 12 11 6 12 11 6 6 2 4 3 2 2 2
23 24 26 27 25 27 29 30 30 29 31 30 27 25 20 7 8 13 7 6 5 4 4 3 2 3 8 11 5 6 5 3 4 10 8 3 4 13 12 11 7 4 2 4 4 3 1
24 23 26 28 26 27 28 29 28 26 26 26 24 21 20 17 10 14 7 3 4 2 5 5 4 3 13 6 10 4 3 8 5 10 5 3 5 8 9 6 5 4 5 4 3 4 2
26 24 27 28 27 26 28 28 27 24 22 21 20 21 17 18 14 12 9 5 1 5 6 4 6 8 5 5 4 3 6 10 7 12 11 4 4 4 2 7 5 6 5 6 4 2 0
25 24 27 29 28 27 27 28 24 21 19 17 18 18 17 13 10 7 5 4 4 6 1 3 3 4 3 5 6 2 2 4 2 4 3 4 5 4 4 7 6 0 4 1 2 1 3
23 25 26 28 30 28 27 26 21 18 16 16 17 16 16 16 12 8 9 3 9 5 5 4 5 9 5 5 6 4 3 3 5 7 3 3 4 4 5 3 6 5 3 3 4 3 2
24 24 27 27 29 31 28 26 22 17 16 17 16 13 19 20 14 8 4 6 2 1 4 7 6 7 5 5 4 4 3 1 2 1 4 4 3 1 4 2 2 4 2 3 6 1 1
21 24 25 27 28 29 30 27 25 19 16 17 14 7 24 19 13 6 3 6 3 2 3 4 4 2 3 3 3 2 1 1 3 2 1 3 5 2 2 4 9 2 5 3 2 3 3
19 23 23 26 28 29 29 29 28 23 18 14 11 3 19 13 12 10 4 3 3 4 3 2 3 4 3 4 3 2 1 1 1 2 4 4 3 0 2 1 5 2 1 5 4 1 3
18 21 21 24 27 29 29 30 27 26 19 14 6 3 13 10 7 3 3 3 4 4 3 2 4 3 4 4 3 2 3 1 3 5 3 1 4 3 2 1 1 2 4 4 3 4 1
17 20 22 22 25 29 29 30 29 23 19 15 4 3 12 8 3 3 4 3 2 5 4 3 2 2 1 3 3 2 3 2 4 2 5 4 2 3 4 3 2 3 3 3 4 3 5
16 18 20 24 26 27 30 28 29 24 16 9 3 2 6 9 5 2 4 3 4 2 2 4 2 3 3 4 5 3 2 3 5 2 7 6 3 4 5 3 4 3 4 5 5 3 3
12 17 19 22 26 27 29 30 26 25 14 5 4 2 1 1 2 2 1 2 2 3 4 3 3 2 3 3 2 2 2 3 2 5 3 3 3 2 3 3 3 4 4 8 7 4 5
11 17 20 21 24 27 27 29 26 22 15 5 3 2 2 1 3 1 0 1 1 2 1 2 5 3 2 4 5 7 5 2 3 1 3 2 3 1 2 1 4 4 7 8 10 4 8
15 17 19 18 21 24 25 26 25 20 15 7 5 4 2 2 1 1 2 2 1 2 1 3 1 1 3 1 3 4 3 7 7 7 3 4 5 2 3 2 4 6 9 12 6 5 9
14 16 20 20 16 20 21 21 22 18 14 11 9 4 3 2 1 1 4 4 1 0 2 1 3 3 3 9 12 12 12 11 7 3 5 5 4 2 1 3 1 4 4 6 13 5 11
16 17 19 20 11 16 18 19 18 15 14 7 6 4 2 3 3 5 2 3 6 3 0 2 1 4 9 2 3 3 1 2 3 2 3 2 4 2 1 3 5 1 3 6 5 2 11
15 16 21 14 11 13 15 17 15 16 15 11 9 3 1 3 3 3 2 2 1 1 3 1 3 6 6 2 2 3 4 4 3 1 4 4 4 3 2 2 3 3 3 5 2 2 5
15 18 19 15 14 10 13 14 15 14 14 12 9 8 1 3 5 4 4 3 2 1 2 2 4 5 5 2 2 3 4 4 5 6 4 3 2 5 4 3 6 5 6 10 2 3 3
16 17 15 16 15 11 13 15 12 15 14 12 11 10 9 5 14 12 10 7 4 4 3 1 2 2 2 4 4 3 3 5 3 4 5 8 6 3 3 4 7 6 5 6 3 4 6
19 15 13 16 18 16 10 14 12 13 14 13 12 11 14 10 12 29 32 30 24 20 5 4 3 3 8 3 1 3 3 2 4 3 2 5 6 5 7 5 4 9 1 3 9 10 4
Wind_Direction
341 339 341 338 334 326 325 327 327 325 326 322 321 320 316 317 323 323 316 309 302 296 283 266 265 287 273 241 234 199 133 182 192 190 186 180 180 182 180 162 144 149 168 188 218 159 181
343 341 338 335 333 334 327 330 330 330 327 323 321 320 317 320 322 320 317 314 310 297 280 274 275 288 233 249 228 230 226 291 189 190 183 183 186 176 179 178 176 183 170 164 232 244 231
345 339 338 338 338 340 333 334 333 332 329 324 321 320 316 313 319 316 315 315 305 296 269 263 254 254 233 227 239 219 235 257 200 188 180 176 182 177 157 122 170 132 121 275 242 219 252
344 344 341 341 340 338 339 337 334 334 334 326 324 325 318 320 315 308 316 339 314 308 273 253 249 225 236 222 228 188 226 234 190 187 185 172 165 165 160 132 93 120 98 157 241 183 224
344 345 345 346 345 340 346 341 340 337 331 326 319 320 315 315 309 301 307 302 303 289 252 225 242 201 217 206 202 181 218 182 175 183 186 173 177 147 131 122 103 142 188 189 296 190 137
347 348 346 349 349 345 345 343 341 337 333 328 325 321 313 311 293 298 318 319 327 213 183 167 192 187 241 189 190 196 224 188 173 175 170 178 181 133 120 161 185 157 131 176 204 165 154
350 348 349 350 345 347 348 346 341 341 340 335 326 317 307 320 273 294 317 354 50 86 158 183 200 238 124 180 175 180 204 174 167 149 164 183 166 194 163 142 154 134 129 164 199 100 177
353 351 350 349 351 349 346 347 349 351 353 356 352 339 311 295 284 282 288 319 150 126 139 239 275 242 328 160 151 150 171 154 155 163 136 154 205 161 148 143 121 119 131 190 332 38 135
349 352 351 351 350 348 350 351 355 357 357 358 357 359 354 327 314 272 236 205 151 159 134 60 91 241 285 160 126 195 202 100 95 117 181 155 163 139 164 162 127 103 145 159 143 358 64
352 356 350 354 354 351 356 353 2 360 2 5 7 23 23 26 47 78 101 173 171 191 86 85 266 122 135 133 73 144 183 69 117 142 101 77 307 157 160 182 157 148 115 110 109 82 255
358 358 353 358 352 350 354 356 6 3 8 10 13 17 33 53 75 66 75 126 178 280 84 10 13 79 145 80 134 80 80 70 101 120 145 205 141 152 150 156 149 117 105 108 93 89 28
1 1 360 358 358 355 353 2 8 7 12 13 28 35 45 64 72 85 81 85 161 38 61 23 348 118 124 126 60 115 59 70 86 76 71 63 35 67 72 69 59 129 84 55 55 84 359
360 1 3 1 1 358 359 2 14 9 12 18 23 19 26 40 63 56 4 314 31 62 321 36 89 135 115 112 106 186 89 77 102 102 62 64 16 30 80 74 37 160 91 66 16 38 217
356 1 5 3 4 2 359 4 11 12 6 0 353 358 8 7 3 341 344 48 55 18 47 105 115 89 79 36 49 66 48 95 43 88 110 131 115 159 171 161 157 179 169 156 191 187 240
353 358 3 3 7 5 357 2 10 5 359 346 339 343 6 359 355 352 344 51 64 42 107 133 70 61 27 33 86 75 42 115 97 112 125 124 53 318 53 111 82 171 137 138 105 44 15
352 360 1 3 4 10 3 358 1 3 356 356 347 4 9 4 357 11 64 93 73 280 31 63 94 13 112 96 65 93 191 318 108 69 160 162 106 353 163 74 48 104 140 85 18 143 234
348 356 6 3 3 7 9 358 354 359 358 357 8 53 4 3 34 53 60 52 353 355 359 82 138 100 66 137 131 167 116 328 128 71 92 123 100 58 125 159 161 101 106 57 102 109 173
347 349 2 6 5 4 6 5 356 352 3 2 26 41 3 21 47 24 24 344 333 322 354 76 105 110 133 168 115 139 149 216 166 142 87 77 117 132 110 1 163 188 178 148 140 208 64
343 347 350 357 1 1 2 5 2 354 355 1 16 15 28 43 75 11 319 311 295 354 4 31 62 53 112 122 111 104 123 339 166 107 157 183 60 74 5 15 354 204 196 149 112 100 201
341 346 352 352 359 357 356 6 360 357 348 6 358 30 35 53 68 47 8 347 353 30 6 52 99 64 88 60 28 145 122 15 202 74 118 96 102 149 181 190 140 188 185 180 137 142 178
338 346 349 350 349 356 353 356 2 356 350 358 40 80 28 313 13 68 269 285 345 5 352 29 59 134 141 111 94 120 139 108 73 157 67 100 120 111 253 218 175 202 187 186 197 179 178
321 339 346 345 344 349 350 350 357 358 1 16 56 36 359 294 306 212 344 359 360 331 300 353 136 199 116 155 182 191 143 138 181 70 115 50 127 119 311 77 207 247 232 206 218 216 256
315 326 336 341 341 344 348 348 356 1 11 51 48 55 359 321 359 272 218 220 312 244 91 79 129 81 95 236 227 221 185 162 166 144 140 131 136 107 271 321 322 285 225 201 189 197 203
318 327 332 337 337 339 350 353 359 7 17 40 33 14 6 285 353 198 350 327 287 19 159 52 95 104 138 104 95 105 96 99 113 83 140 137 108 105 288 10 290 244 157 192 198 196 214
323 330 329 330 332 337 349 357 1 6 17 22 33 37 2 285 294 310 4 281 307 314 146 178 126 139 153 121 67 109 48 125 114 84 152 167 121 145 200 244 283 219 178 142 180 240 200
335 334 333 343 328 339 344 359 359 355 5 15 33 28 345 318 253 294 310 309 256 265 334 221 149 158 160 91 112 156 204 202 192 92 17 100 96 130 180 242 242 249 144 115 63 228 179
338 334 329 325 328 325 334 342 358 1 348 359 9 18 339 280 268 222 233 246 255 219 210 265 181 175 180 114 131 173 231 188 175 190 171 148 169 195 197 268 287 237 155 106 162 185 248
331 327 327 327 328 324 335 335 330 352 340 347 349 354 1 284 275 251 240 240 251 222 182 184 109 232 82 164 179 180 175 218 150 189 170 186 179 184 170 213 260 170 124 160 221 272 287
313 309 315 324 321 318 294 295 319 346 345 329 331 337 326 305 279 290 277 260 248 238 283 245 258 208 198 111 201 121 166 146 161 205 334 200 186 183 189 211 237 201 176 206 320 289 267